GFSNW_con_3kmhel_159.txt.gz
Helicity
-3 1 18 35 60 93 49 39 50 38 27 40 21 11 21 40 28 41 36 48 47 61 52 39 22 29 51 61 75 68 43 51 50 25 40 57 80 61 78 42 23 57 53 51
-3 3 17 31 46 40 37 29 31 53 28 50 37 25 19 15 19 13 13 21 28 40 43 63 36 39 54 56 52 43 49 59 39 40 36 30 46 41 59 64 71 42 47 40
-0 5 18 35 36 34 30 22 22 25 32 36 31 38 30 24 15 12 18 20 32 34 33 23 30 29 26 38 45 68 74 28 52 60 53 53 38 23 20 44 63 52 43 43
17 13 19 42 46 26 8 -5 2 10 20 21 29 38 37 36 31 18 13 13 -1 15 22 20 15 14 21 15 32 36 32 14 23 24 34 37 41 30 25 34 43 64 115 101
35 21 19 46 65 49 -6 -16 -8 1 -1 13 29 33 30 35 31 23 20 21 10 10 4 1 -1 15 10 10 6 13 18 12 11 6 13 15 19 17 24 34 46 47 56 65
41 36 25 47 74 44 21 13 2 -6 -16 -0 16 10 17 22 29 24 20 25 31 14 15 8 2 -4 -4 -0 8 -6 -6 -19 -9 -1 -1 20 14 13 48 72 66 51 61 125
40 44 35 39 52 44 20 37 15 2 29 -7 -12 -0 1 7 7 14 12 18 25 13 10 7 8 -1 -3 -5 -4 13 4 -6 -11 -17 -13 -6 40 56 62 22 28 42 34 89
35 46 33 33 47 46 13 34 39 41 38 34 28 15 3 11 1 -5 -3 -8 -2 14 16 15 19 20 18 -10 -17 -2 -0 -2 -12 -8 3 -5 98 57 79 64 88 104 112 108
21 38 30 27 37 45 18 18 30 41 48 50 49 41 32 28 29 28 2 -12 -1 2 -5 -4 -1 2 -7 -6 -24 3 25 37 36 54 47 43 109 128 146 132 147 181 156 140
35 30 26 21 30 43 37 33 36 31 43 45 48 48 49 53 47 52 55 49 44 30 33 18 20 31 44 15 29 51 60 62 62 71 84 62 149 180 102 173 245 189 136 106
65 44 36 32 31 37 43 46 45 54 52 44 46 55 57 61 62 65 80 57 59 61 45 43 49 41 61 52 78 76 83 104 108 148 131 110 146 167 206 255 234 169 153 138
128 81 45 67 43 44 39 50 46 46 50 72 51 58 65 77 88 96 93 103 89 95 76 79 83 67 76 83 71 78 81 117 173 134 145 175 87 186 244 251 222 175 149 126
295 123 84 68 52 47 55 61 49 39 46 37 56 75 86 86 103 105 105 96 118 109 116 118 115 87 102 106 96 90 78 133 172 152 94 93 99 99 148 194 176 174 141 130
249 284 172 76 43 55 59 72 45 45 48 49 52 64 71 73 80 103 109 111 99 110 120 125 119 116 127 161 180 130 149 167 122 158 96 90 94 186 204 181 131 105 114 109
176 224 169 175 41 41 78 59 66 46 82 90 65 48 82 98 115 124 132 122 120 128 144 148 138 154 157 185 204 158 201 179 230 212 166 220 171 233 177 116 112 121 109 90
135 157 123 130 109 121 94 68 68 87 80 68 54 81 99 126 136 145 138 124 132 153 150 142 158 225 173 196 219 143 111 78 84 98 156 178 157 119 116 106 106 101 97 99
119 144 151 160 201 161 146 88 78 46 70 78 54 56 95 132 158 170 159 165 167 174 168 173 194 184 195 262 202 155 135 110 121 168 150 97 81 111 132 96 88 92 95 100
148 166 172 163 180 139 155 155 86 122 100 100 129 155 134 86 105 116 134 143 149 149 187 177 166 193 235 249 157 98 99 153 134 123 115 99 130 110 91 89 99 104 105 111
144 165 172 145 123 128 177 158 179 204 153 127 147 199 143 138 154 132 102 99 111 148 177 200 169 245 285 175 63 70 93 113 112 137 136 116 92 86 84 81 76 80 98 114
151 124 149 161 163 72 71 143 127 111 159 208 222 285 271 167 125 118 106 82 117 142 140 156 206 301 177 192 141 130 144 119 162 167 119 116 116 100 109 103 100 104 123 135
140 179 206 185 101 161 151 115 126 151 215 180 256 309 287 178 220 184 111 150 141 160 161 175 220 227 110 52 59 85 129 155 156 125 148 122 108 98 109 125 140 157 174 178
162 151 134 166 223 201 217 234 189 228 227 248 248 136 168 242 256 239 173 191 172 203 238 261 301 143 79 113 89 106 121 126 152 151 138 124 99 84 94 124 142 161 156 134
75 150 175 213 237 313 363 371 441 428 370 253 187 198 232 283 280 279 226 175 217 275 272 316 203 146 106 112 141 148 149 152 163 165 168 159 145 135 128 124 118 119 112 104
100 161 298 268 291 320 397 383 376 360 313 260 243 292 278 316 323 297 274 279 288 285 338 253 225 75 109 143 148 156 151 167 177 180 185 191 162 143 132 127 130 126 119 127
124 158 223 209 230 271 274 284 305 282 202 228 330 339 294 284 261 248 283 243 253 237 272 188 86 82 128 145 155 179 191 201 203 189 197 186 161 133 123 117 127 130 121 118
85 184 229 190 189 179 180 199 226 171 188 234 253 264 242 269 334 309 229 259 244 231 216 136 115 111 123 168 197 199 231 231 227 213 205 180 155 141 139 134 127 122 118 112
165 154 173 198 184 156 117 74 89 13 134 257 197 206 190 267 250 278 317 328 270 184 135 148 166 45 124 166 227 257 256 267 255 237 186 157 149 152 140 122 131 127 119 117

GFSNW_con_3kmhel_162.txt.gz
Helicity
-11 19 20 42 56 81 34 34 52 47 38 57 34 24 18 41 31 50 55 80 63 56 52 31 28 42 33 53 76 61 45 24 50 48 18 29 67 33 71 35 54 82 57 69
4 13 31 40 45 25 23 30 32 50 32 65 55 41 27 16 18 17 35 37 40 50 41 54 48 37 50 44 31 35 65 36 57 58 38 16 52 33 59 63 67 39 36 58
35 18 33 46 48 20 16 15 17 26 43 62 48 50 43 34 22 21 30 36 58 64 44 24 36 43 36 40 49 70 73 37 26 49 40 45 23 26 41 68 49 54 76 68
40 36 31 45 58 34 0 -9 -3 13 18 10 33 40 39 39 36 28 27 28 13 32 33 32 26 31 41 35 41 56 41 18 12 11 27 32 27 7 9 30 55 70 70 92
41 41 44 49 75 55 16 15 -3 -4 5 15 31 32 26 27 30 19 20 19 19 3 12 23 13 34 17 16 36 24 42 17 11 17 14 20 16 8 18 30 45 41 49 54
39 40 42 50 79 39 24 30 22 -1 -17 0 13 2 13 15 24 21 13 27 41 0 15 11 16 5 4 5 17 14 10 5 0 16 0 10 17 1 54 54 53 61 69 106
40 48 53 50 57 51 5 37 30 26 23 7 0 -12 -5 4 1 12 7 13 22 18 19 30 33 14 10 -1 5 17 25 10 9 20 13 13 -5 17 14 31 28 35 34 104
41 41 49 48 50 66 16 27 43 52 37 35 21 12 13 17 -4 -10 -5 -8 4 13 20 17 26 25 22 5 6 12 5 13 2 2 9 -8 -19 -21 64 67 75 82 121 176
30 26 37 49 51 62 16 29 29 40 50 56 46 31 29 19 25 17 -16 -22 -9 -3 -5 -2 5 5 1 5 -4 -7 1 -3 -14 -10 13 23 19 64 61 95 77 140 155 138
36 41 42 42 62 57 43 38 43 36 48 55 63 54 49 49 40 39 30 14 6 7 26 9 -1 2 21 4 1 20 35 33 23 17 21 21 69 87 85 119 100 149 170 168
63 55 51 43 54 61 60 53 57 63 67 49 58 68 58 53 52 62 49 53 51 66 59 50 45 36 39 34 42 38 38 45 43 56 75 45 98 111 107 114 183 216 192 150
99 66 54 50 51 73 72 60 51 65 65 70 47 59 74 80 78 76 80 80 68 80 70 67 68 51 55 52 26 70 65 92 98 103 94 125 108 197 189 223 245 210 183 176
251 109 91 67 60 85 91 72 72 70 74 60 52 73 75 79 101 87 98 98 114 105 98 89 82 70 92 74 48 78 77 137 139 139 108 129 151 123 177 211 210 219 206 168
296 275 194 110 91 86 108 92 81 86 75 72 54 31 57 52 66 105 118 112 97 96 106 105 103 96 125 109 111 92 122 147 103 141 109 81 126 197 207 213 163 132 133 141
260 256 275 257 118 97 124 119 70 91 109 93 76 68 52 64 91 99 112 112 122 119 129 140 117 128 144 137 154 121 220 190 206 169 104 167 159 179 200 175 139 164 142 114
144 194 183 175 218 110 138 156 96 103 93 92 75 81 92 89 90 75 89 106 111 141 139 125 129 181 162 156 184 120 103 107 110 116 161 136 184 185 165 158 171 143 129 115
133 137 152 160 200 114 172 151 80 51 72 96 95 61 61 101 123 125 124 139 147 159 155 168 168 180 180 217 228 214 166 118 141 201 209 142 123 153 180 150 132 129 116 119
143 119 128 128 115 54 100 100 38 51 75 96 127 146 113 63 90 112 99 121 133 127 157 173 166 197 186 157 169 142 111 142 169 188 159 188 184 185 150 120 110 116 111 123
131 144 124 80 103 128 96 88 131 128 110 124 129 145 71 97 128 122 114 113 105 124 155 180 163 199 197 196 127 124 110 146 138 158 188 190 159 148 137 136 125 119 114 140
117 103 118 130 137 122 36 96 106 144 115 137 169 198 202 134 116 116 105 76 106 132 128 131 160 205 106 167 168 170 157 180 241 240 187 143 132 131 136 135 126 127 124 144
137 171 184 155 92 140 106 109 150 166 208 169 199 248 277 177 204 174 120 163 149 146 122 148 160 128 149 71 58 61 106 186 209 173 164 138 136 132 133 121 132 144 146 140
134 150 118 149 167 166 151 206 173 207 207 200 151 96 172 208 209 224 170 185 180 171 211 221 227 66 96 87 94 103 110 204 182 128 111 118 126 125 137 144 136 120 116 111
87 129 186 177 178 217 259 284 336 303 261 113 33 94 127 191 170 211 173 152 169 238 253 265 179 119 97 97 130 132 141 138 127 120 138 148 158 159 131 115 107 106 94 90
138 184 247 207 238 265 348 355 344 252 179 117 141 193 204 241 229 237 231 273 328 310 325 216 137 83 74 105 92 142 114 124 138 157 164 169 172 173 177 168 133 109 95 97
159 157 223 206 223 253 219 203 192 200 162 149 218 240 221 212 204 227 295 266 251 238 171 107 99 68 34 76 111 123 146 136 160 185 200 209 209 190 182 157 135 115 101 93
111 232 240 233 237 177 169 192 185 85 145 189 168 174 171 220 318 286 236 315 271 170 138 88 84 74 61 75 92 114 152 145 157 189 195 193 192 195 183 152 113 91 87 83
157 125 120 181 203 202 148 83 106 59 112 212 229 217 161 152 258 365 295 237 184 155 104 114 80 59 39 62 124 109 165 192 191 185 189 202 206 212 184 144 123 91 82 84

GFSNW_con_3kmhel_165.txt.gz
Helicity
16 20 48 52 67 77 35 36 49 37 39 43 42 37 27 25 36 57 61 74 69 68 42 41 45 50 54 44 51 20 26 0 7 33 67 43 -6 21 70 93 101 103 98 140
37 42 47 49 54 24 19 37 43 26 21 59 47 44 35 23 20 27 34 49 53 53 56 52 55 47 51 35 25 36 47 12 -2 16 16 8 -37 -1 49 87 109 91 39 76
60 65 63 53 49 30 30 25 28 22 25 50 59 52 50 42 23 24 27 44 37 40 55 23 43 37 37 43 41 45 48 15 7 -3 4 -13 -23 8 31 38 68 64 76 68
62 65 71 75 61 38 34 19 14 27 18 25 31 40 40 39 35 24 29 21 8 33 35 37 29 34 36 43 53 56 41 25 29 21 23 15 5 1 19 17 14 47 16 56
53 58 66 83 81 32 39 16 23 24 11 11 6 18 28 33 38 18 27 29 21 0 20 25 39 38 25 34 55 29 34 43 35 39 29 11 21 34 22 18 22 24 31 53
51 49 64 80 94 32 23 22 26 37 9 0 -16 8 13 18 21 27 20 31 27 20 29 31 34 25 16 10 19 40 25 16 17 21 20 6 15 18 24 0 9 16 29 38
46 42 53 67 84 52 9 12 31 31 29 26 2 -12 -14 -4 1 12 7 3 19 26 21 24 29 28 11 -2 18 10 19 13 15 26 24 31 27 19 8 -7 -1 1 46 47
49 44 51 55 66 73 22 19 26 21 28 36 35 22 11 0 -12 -11 -8 -3 5 11 10 8 15 22 24 13 15 15 7 7 15 17 23 20 6 10 1 -18 4 7 41 71
53 43 43 43 51 67 33 32 28 36 28 40 40 34 31 20 13 16 -5 -8 -4 -11 -16 -13 -2 10 17 10 7 6 0 -15 -13 -3 6 5 2 -2 19 46 16 50 100 89
59 46 45 44 46 56 45 43 47 48 40 44 63 55 45 47 35 27 19 8 14 5 14 10 -9 -6 5 -9 -1 12 9 -1 10 3 8 0 32 61 55 34 10 44 84 106
50 53 38 35 53 64 53 44 57 54 63 60 74 69 62 66 54 47 32 44 42 42 50 49 40 36 28 25 19 21 17 19 2 12 5 17 39 40 20 19 64 106 141 134
77 51 51 45 64 75 83 79 69 68 81 86 82 83 78 82 72 61 64 56 45 47 73 64 60 51 41 24 15 43 27 37 30 54 39 57 38 77 95 129 164 172 166 166
250 76 75 78 100 97 97 81 84 99 119 129 114 103 95 104 99 74 83 84 90 94 74 66 70 57 63 49 31 60 61 82 76 76 51 80 95 108 152 164 163 169 168 160
360 343 138 106 103 101 121 114 96 116 122 138 127 92 81 71 83 95 111 120 118 106 108 104 95 89 84 68 53 68 74 120 100 101 87 91 113 117 143 184 194 182 170 150
295 294 310 262 124 116 145 137 127 114 141 123 121 94 86 99 115 115 112 115 125 121 124 122 87 89 121 137 117 110 204 165 159 105 60 92 91 98 146 185 185 182 149 138
222 274 283 272 250 167 208 212 142 123 121 163 137 141 139 124 117 118 126 134 146 153 127 100 92 141 142 113 128 86 104 106 110 113 129 126 105 136 156 154 167 152 144 127
186 199 211 226 217 126 238 202 153 119 155 173 166 134 129 147 170 172 175 172 149 135 120 119 146 151 157 173 200 236 167 100 90 107 179 176 169 130 150 163 156 157 148 135
159 160 160 120 92 83 66 100 35 33 127 180 227 233 203 110 158 170 144 180 174 149 153 148 132 140 155 119 120 67 82 77 63 114 154 154 184 185 164 152 149 139 123 119
119 101 90 73 112 167 87 68 80 108 128 224 224 216 167 132 181 175 171 140 148 123 144 132 109 135 119 78 113 105 107 99 85 122 177 193 182 154 143 130 119 117 105 111
107 99 112 167 119 64 30 10 86 84 137 195 215 254 246 194 163 187 177 154 165 150 109 102 120 134 30 52 95 66 111 144 180 262 210 169 160 145 137 126 127 115 105 111
128 141 129 103 106 100 69 110 150 196 197 130 180 226 263 214 195 188 137 156 127 117 106 121 101 68 58 44 26 24 61 72 106 149 142 130 130 123 140 137 127 127 133 130
106 96 105 123 125 99 112 140 168 181 209 178 110 89 122 148 194 240 164 167 124 125 127 125 114 31 35 45 27 21 62 90 154 139 128 118 115 120 123 118 127 131 130 125
73 105 163 151 133 156 181 218 235 279 199 101 69 78 50 67 57 100 104 101 140 133 145 160 89 53 53 26 35 72 104 125 136 128 110 103 116 131 127 129 127 123 117 109
126 172 201 163 180 206 255 244 206 199 152 143 113 120 116 130 132 149 149 179 186 200 210 123 89 65 91 37 10 6 39 73 93 121 134 137 136 147 158 160 138 122 116 121
149 152 183 187 188 193 181 221 213 178 145 118 134 141 127 138 168 167 194 176 177 143 114 115 118 105 91 68 22 62 91 71 73 93 99 111 126 138 147 150 146 139 141 129
114 144 186 196 179 182 200 202 213 127 145 146 135 157 158 178 221 177 133 188 187 247 250 246 207 180 134 107 46 28 53 62 83 102 117 170 150 154 145 143 130 141 133 109
137 131 115 149 157 153 166 178 202 130 134 235 226 259 203 149 168 221 260 263 271 290 296 284 240 164 116 35 87 44 67 132 132 133 116 121 145 176 181 173 112 99 89 85

GFSNW_con_3kmhel_168.txt.gz
Helicity
40 45 40 46 48 49 29 35 35 23 15 35 40 50 38 27 39 52 54 65 62 58 41 30 38 58 46 14 25 25 2 28 43 81 44 71 26 29 64 63 72 93 63 109
57 62 59 52 56 36 21 32 42 15 20 56 43 38 32 29 29 35 41 48 48 43 57 34 24 26 25 13 17 35 25 10 7 16 4 5 -23 17 45 91 120 61 15 65
77 76 72 61 58 39 41 29 27 26 31 33 51 50 43 40 32 31 31 34 24 29 38 23 38 34 29 20 29 16 14 -10 16 28 -5 -43 -54 -1 52 103 91 85 89 80
89 86 90 74 70 41 38 30 -2 22 27 21 31 31 37 36 32 32 24 25 6 35 38 35 27 28 28 30 25 14 17 -17 9 31 28 1 -29 -6 33 45 35 76 47 42
80 85 92 86 78 43 34 16 23 35 24 16 19 6 22 26 33 20 28 36 28 10 27 28 35 29 15 34 37 8 16 23 21 37 41 12 -13 -11 -14 17 29 29 46 50
75 80 84 85 92 36 38 24 31 37 22 23 22 9 10 10 13 23 20 29 32 27 29 28 22 24 18 15 20 26 10 19 26 44 42 42 11 5 -3 12 10 20 41 18
72 73 78 79 80 55 33 23 32 26 12 28 10 11 9 -7 -6 6 7 4 21 22 14 27 28 31 17 11 15 18 16 9 14 24 33 9 36 31 11 11 5 25 48 35
72 69 71 74 78 64 37 29 27 23 13 26 34 27 22 35 27 -5 -10 -2 2 2 6 11 15 27 29 23 26 17 9 7 7 18 24 40 28 19 7 5 9 1 38 43
72 74 73 65 74 67 43 31 29 39 26 2 37 32 33 28 22 23 6 -1 9 -8 -17 -14 -6 11 20 11 2 -5 -6 -15 -8 -4 -5 0 31 28 21 37 13 26 57 73
84 69 68 62 60 62 44 38 38 44 39 28 34 22 27 48 50 37 25 20 21 20 10 -23 -27 -6 -13 -10 -5 -11 -12 -1 -15 -3 7 24 25 48 43 28 18 21 50 80
99 65 63 57 48 52 45 38 41 41 36 34 54 51 43 61 58 42 37 49 38 41 48 34 28 37 31 33 19 18 18 23 15 31 24 17 43 60 16 28 56 91 101 121
107 74 61 48 45 42 48 56 51 54 59 42 61 68 71 81 90 82 79 67 55 43 66 54 61 52 54 44 25 46 28 28 25 23 12 48 25 57 59 79 79 77 133 129
126 76 63 65 56 49 69 73 71 91 81 79 103 92 104 110 117 99 94 92 91 92 83 74 74 63 72 48 28 53 50 76 65 57 43 46 45 74 105 102 104 119 135 134
169 172 73 94 73 74 102 122 113 128 107 102 107 117 114 88 93 100 130 134 145 136 129 121 113 91 79 65 64 75 73 96 85 84 74 80 49 83 95 122 149 162 151 141
210 228 276 202 119 125 143 149 136 152 155 121 116 111 120 129 123 121 135 156 160 142 139 138 104 110 118 99 85 91 161 116 134 110 96 102 76 95 103 134 142 153 169 153
330 322 284 255 231 152 190 200 193 147 162 207 176 152 166 155 140 148 162 160 162 193 175 146 146 167 147 131 100 51 74 90 118 88 114 107 110 88 112 142 155 169 156 136
430 381 344 281 277 203 322 257 225 218 235 228 185 174 194 207 195 195 193 207 208 191 176 173 172 153 149 190 173 170 119 88 82 84 114 107 124 101 127 162 174 166 156 134
412 318 283 241 187 160 161 143 140 150 230 216 221 232 208 146 167 200 225 241 241 237 224 202 173 164 184 142 39 35 73 79 69 63 89 106 122 194 202 213 203 173 146 133
121 146 98 157 204 209 210 119 114 120 203 249 256 255 187 160 193 184 177 179 211 196 203 190 167 194 182 36 94 86 85 65 67 83 89 125 143 162 192 193 162 146 126 126
63 75 171 186 174 75 -60 205 249 203 66 160 251 230 232 158 173 197 198 196 187 180 171 173 207 168 59 58 65 71 104 94 75 132 137 134 139 146 155 132 120 100 99 113
116 140 148 119 85 130 161 257 243 241 306 239 271 242 238 171 208 181 163 197 193 187 164 168 141 85 65 121 105 71 62 55 53 77 80 94 112 128 137 128 106 113 119 117
98 94 114 108 107 149 202 201 229 210 234 207 203 185 211 262 259 261 187 176 157 181 148 162 137 111 98 106 88 62 48 66 93 106 121 118 118 104 115 121 119 123 142 158
85 137 143 131 130 153 185 254 293 299 197 110 119 162 164 157 94 115 105 118 170 152 164 174 119 109 108 114 87 52 52 69 82 80 76 91 107 111 109 127 137 160 174 159
130 167 170 153 164 179 222 192 164 141 120 95 77 127 78 74 81 74 103 104 97 174 204 170 110 169 199 155 120 132 85 30 40 49 62 74 99 110 112 129 140 155 158 156
140 143 157 173 191 180 183 226 282 196 141 92 124 131 120 116 133 158 174 147 187 157 168 181 193 211 216 236 209 137 65 33 23 26 71 98 97 109 144 175 187 170 164 174
109 144 167 169 182 206 207 189 204 146 159 129 127 143 150 151 142 190 221 261 204 243 202 187 198 202 231 224 175 112 67 44 31 74 98 90 140 178 183 169 160 155 146 136
117 125 107 114 125 151 168 177 169 160 208 272 232 278 260 211 208 199 175 237 273 249 210 197 209 211 198 164 150 96 53 22 46 117 112 151 199 208 195 179 178 166 120 103

GFSNW_con_3kmhel_171.txt.gz
Helicity
56 68 65 53 51 45 59 77 48 52 48 70 48 66 57 34 41 55 58 66 75 80 73 66 61 56 59 1 11 24 12 8 -18 19 105 69 27 24 79 37 78 49 85 78
65 82 85 67 58 50 55 66 65 58 49 57 63 45 44 45 41 44 45 52 67 58 68 68 68 73 35 12 -4 31 11 22 80 43 60 18 69 65 62 63 59 52 17 42
77 89 101 85 64 48 64 80 38 64 56 42 54 57 51 47 46 41 41 38 34 43 61 47 57 46 37 21 4 12 2 1 19 55 44 33 19 37 62 78 79 44 44 65
94 102 107 97 81 44 55 74 27 47 19 26 44 48 40 44 46 42 37 44 26 36 46 42 40 48 33 30 2 -19 -9 -6 -12 19 20 18 3 15 55 86 49 42 41 105
113 109 113 104 95 59 69 53 46 68 40 45 41 27 30 40 35 35 45 52 33 24 51 41 42 34 22 34 27 3 13 41 32 15 10 -21 -37 -16 14 43 17 44 60 86
108 107 107 107 92 31 68 62 70 61 41 42 51 11 27 24 27 23 23 29 33 41 46 49 39 29 23 20 17 21 10 12 21 38 23 21 -7 5 10 15 18 10 43 33
96 107 108 102 95 50 69 55 66 68 23 34 18 25 23 31 19 9 14 16 24 21 13 31 31 30 28 24 11 7 10 9 13 26 20 18 24 17 19 12 3 -1 8 29
83 102 105 102 109 79 76 60 57 54 37 29 34 34 30 39 28 9 -1 -2 3 9 5 13 18 26 23 29 25 13 8 6 2 15 19 27 11 25 9 11 24 3 29 40
77 90 99 100 107 97 85 74 57 52 45 21 34 32 29 23 23 25 16 21 33 16 -22 -8 7 20 17 17 9 -5 -6 -7 -2 -0 -0 -3 6 -6 7 7 34 -46 30 41
71 78 83 87 97 102 92 78 60 67 60 40 45 31 19 33 36 28 33 25 27 31 23 3 -20 -2 -6 2 4 -0 -15 -17 -20 -23 -13 5 6 -5 16 -2 14 15 9 40
78 76 81 77 83 88 93 83 65 66 71 50 43 42 28 33 35 22 28 47 37 47 40 22 10 14 22 25 20 17 12 11 -30 13 -4 1 16 31 46 15 30 26 64 92
91 85 81 78 71 74 81 96 66 56 66 57 42 53 61 64 58 47 61 48 46 36 61 44 49 29 39 40 40 56 39 46 43 44 40 46 3 58 47 65 74 55 105 116
87 90 80 79 81 75 82 83 61 75 85 73 69 65 88 93 105 86 71 62 69 69 71 62 68 55 76 46 35 64 61 76 70 77 67 52 56 67 76 81 93 112 100 122
104 63 80 79 78 87 91 97 69 83 84 75 74 81 83 80 99 105 110 93 109 109 107 101 96 83 77 65 70 78 68 90 78 81 71 92 56 76 90 104 118 128 131 131
162 187 96 106 100 97 109 91 73 84 112 85 73 67 76 98 121 137 141 141 133 116 114 116 94 103 107 102 96 99 138 106 142 88 60 100 76 93 97 97 81 105 163 167
183 194 192 121 82 102 124 101 104 105 121 108 115 110 146 193 199 178 171 148 135 154 122 105 118 166 143 110 94 44 3 37 87 84 72 59 69 77 79 84 94 131 138 146
250 192 186 171 90 146 162 127 157 123 197 150 66 12 140 244 285 279 256 267 235 192 165 142 142 138 171 185 139 99 70 67 65 56 72 66 85 77 81 110 130 157 177 165
399 356 284 242 234 192 217 250 228 216 215 196 105 131 168 173 192 237 243 255 242 212 189 181 151 172 210 175 45 94 138 121 108 88 60 76 84 90 125 171 209 216 189 172
473 349 258 309 316 351 328 225 171 200 233 262 224 226 125 180 203 199 182 176 178 176 175 182 156 186 167 98 120 96 109 81 81 80 81 85 82 85 125 173 179 180 159 155
222 282 318 254 353 303 246 311 299 211 161 223 249 249 214 158 173 194 164 160 168 150 148 148 179 179 130 125 114 70 93 117 108 104 96 88 94 98 118 110 131 128 131 137
253 334 344 300 155 205 259 313 263 269 271 226 284 243 261 165 190 159 122 127 132 131 134 158 143 124 134 175 200 180 143 110 75 62 66 74 86 95 102 106 110 120 122 126
83 96 68 80 135 175 230 282 280 232 262 246 234 299 341 275 219 213 130 154 155 155 165 171 155 161 164 209 207 184 121 100 79 65 71 89 88 87 99 117 134 137 139 146
103 91 121 159 181 220 253 293 332 286 224 162 159 193 202 211 206 224 209 176 193 213 189 200 197 208 172 129 132 118 106 106 102 92 64 57 69 85 95 118 129 138 150 146
123 129 179 143 155 219 229 224 274 246 190 148 119 150 144 135 151 153 192 201 189 228 244 242 198 198 198 153 159 178 164 148 133 105 88 68 54 73 100 119 123 149 172 187
140 147 155 152 139 151 152 175 183 150 97 72 79 98 100 125 127 108 144 215 306 252 247 178 161 171 190 210 200 180 152 145 128 85 66 50 61 92 143 155 174 208 222 207
110 137 137 137 170 182 174 155 214 189 164 142 129 88 88 108 129 168 177 197 211 172 152 165 152 140 136 155 160 141 134 123 94 64 59 69 82 108 136 170 195 196 165 144
123 131 93 94 122 176 165 139 134 131 144 190 213 242 237 203 207 258 209 210 219 204 190 142 119 173 191 172 161 144 136 97 77 68 66 91 115 137 167 163 153 168 187 174